QPF
0.00 0.00 0.00 0.00 0.00 0.00 0.00 0.00 0.00 0.00 0.00 0.00 0.00 0.00 0.00 0.00 0.00 0.00 0.00 0.00 0.00 0.00 0.00 0.00 0.00 0.00 0.00 0.00 0.00 0.00 0.00 0.00 0.00 0.00 0.00 0.00 0.00 0.00 0.00 0.02 0.03 0.05 0.06 0.05 0.04 0.04 0.04 0.03 0.01
0.00 0.00 0.00 0.00 0.00 0.00 0.00 0.00 0.00 0.00 0.00 0.00 0.00 0.00 0.00 0.00 0.00 0.00 0.00 0.00 0.00 0.00 0.00 0.00 0.00 0.00 0.00 0.00 0.00 0.00 0.00 0.00 0.00 0.00 0.00 0.00 0.00 0.01 0.01 0.02 0.04 0.06 0.08 0.10 0.10 0.09 0.07 0.06 0.02
0.00 0.00 0.00 0.00 0.00 0.00 0.00 0.00 0.00 0.00 0.00 0.00 0.00 0.00 0.00 0.00 0.00 0.00 0.00 0.00 0.00 0.00 0.00 0.00 0.00 0.01 0.00 0.00 0.00 0.00 0.00 0.00 0.00 0.01 0.01 0.01 0.02 0.02 0.02 0.02 0.03 0.04 0.06 0.06 0.05 0.04 0.04 0.03 0.01
0.00 0.00 0.00 0.00 0.00 0.00 0.00 0.00 0.00 0.00 0.00 0.00 0.00 0.00 0.00 0.00 0.00 0.00 0.00 0.00 0.00 0.00 0.00 0.00 0.00 0.01 0.01 0.00 0.00 0.00 0.00 0.00 0.01 0.01 0.02 0.02 0.04 0.04 0.05 0.05 0.06 0.06 0.06 0.05 0.05 0.05 0.04 0.02 0.01
0.00 0.00 0.00 0.00 0.00 0.00 0.00 0.00 0.00 0.00 0.00 0.00 0.00 0.00 0.00 0.00 0.00 0.00 0.00 0.00 0.00 0.00 0.00 0.00 0.00 0.00 0.00 0.00 0.00 0.00 0.01 0.02 0.02 0.03 0.03 0.03 0.03 0.04 0.05 0.05 0.05 0.06 0.06 0.06 0.08 0.08 0.06 0.02 0.01
0.00 0.00 0.00 0.00 0.00 0.00 0.00 0.00 0.00 0.00 0.00 0.00 0.00 0.00 0.00 0.00 0.00 0.00 0.00 0.00 0.00 0.00 0.00 0.00 0.00 0.00 0.01 0.01 0.01 0.02 0.04 0.04 0.04 0.04 0.04 0.04 0.04 0.03 0.02 0.02 0.03 0.04 0.05 0.05 0.04 0.03 0.02 0.01 0.01
0.00 0.00 0.00 0.00 0.00 0.00 0.00 0.00 0.00 0.00 0.00 0.00 0.00 0.00 0.00 0.00 0.00 0.00 0.00 0.00 0.00 0.00 0.00 0.00 0.00 0.00 0.01 0.01 0.02 0.03 0.03 0.04 0.04 0.06 0.06 0.05 0.03 0.02 0.02 0.02 0.03 0.03 0.02 0.01 0.01 0.01 0.01 0.01 0.01
0.00 0.00 0.00 0.00 0.00 0.00 0.00 0.00 0.00 0.00 0.00 0.00 0.00 0.00 0.00 0.00 0.00 0.00 0.00 0.00 0.00 0.01 0.01 0.00 0.00 0.00 0.00 0.01 0.01 0.02 0.02 0.03 0.04 0.05 0.04 0.03 0.02 0.02 0.02 0.01 0.01 0.01 0.01 0.01 0.01 0.00 0.00 0.00 0.00
0.00 0.00 0.00 0.00 0.00 0.00 0.00 0.00 0.00 0.00 0.00 0.00 0.00 0.00 0.00 0.00 0.00 0.00 0.00 0.00 0.00 0.00 0.00 0.00 0.00 0.00 0.00 0.00 0.00 0.00 0.00 0.01 0.02 0.03 0.03 0.02 0.01 0.01 0.01 0.01 0.01 0.02 0.02 0.01 0.00 0.00 0.00 0.00 0.00
0.00 0.00 0.00 0.00 0.00 0.00 0.00 0.00 0.00 0.00 0.00 0.00 0.00 0.00 0.00 0.00 0.00 0.00 0.00 0.00 0.00 0.00 0.00 0.00 0.00 0.00 0.00 0.00 0.00 0.01 0.00 0.01 0.02 0.02 0.02 0.01 0.01 0.01 0.01 0.01 0.01 0.01 0.01 0.00 0.00 0.00 0.00 0.00 0.00
0.00 0.00 0.00 0.00 0.00 0.00 0.00 0.00 0.00 0.00 0.00 0.00 0.00 0.00 0.00 0.00 0.00 0.00 0.00 0.00 0.00 0.00 0.00 0.00 0.00 0.00 0.00 0.00 0.00 0.00 0.00 0.01 0.01 0.01 0.01 0.01 0.01 0.02 0.00 0.00 0.00 0.00 0.00 0.00 0.00 0.00 0.00 0.00 0.00
0.00 0.00 0.00 0.00 0.00 0.00 0.00 0.00 0.00 0.00 0.00 0.00 0.00 0.00 0.00 0.00 0.00 0.00 0.00 0.00 0.00 0.00 0.00 0.00 0.00 0.00 0.00 0.00 0.00 0.00 0.00 0.00 0.00 0.00 0.01 0.01 0.01 0.01 0.00 0.00 0.00 0.00 0.00 0.00 0.00 0.00 0.00 0.00 0.00
0.00 0.00 0.00 0.00 0.00 0.00 0.00 0.00 0.00 0.00 0.00 0.00 0.00 0.00 0.00 0.00 0.00 0.00 0.00 0.00 0.00 0.00 0.00 0.00 0.00 0.00 0.00 0.00 0.00 0.00 0.00 0.00 0.00 0.01 0.00 0.00 0.00 0.00 0.00 0.00 0.00 0.00 0.00 0.00 0.00 0.00 0.00 0.00 0.00
0.00 0.00 0.00 0.00 0.00 0.00 0.00 0.00 0.00 0.00 0.00 0.00 0.00 0.00 0.00 0.00 0.00 0.00 0.00 0.00 0.00 0.00 0.00 0.00 0.00 0.00 0.00 0.00 0.00 0.00 0.00 0.00 0.00 0.00 0.00 0.00 0.00 0.00 0.00 0.00 0.00 0.00 0.00 0.00 0.00 0.00 0.00 0.00 0.00
0.00 0.00 0.00 0.00 0.00 0.00 0.00 0.00 0.00 0.00 0.00 0.00 0.00 0.00 0.00 0.00 0.00 0.00 0.00 0.00 0.00 0.00 0.00 0.00 0.00 0.00 0.00 0.00 0.00 0.00 0.00 0.01 0.01 0.01 0.01 0.00 0.00 0.00 0.00 0.00 0.00 0.00 0.00 0.00 0.00 0.00 0.00 0.00 0.00
0.00 0.00 0.00 0.00 0.00 0.00 0.00 0.00 0.00 0.00 0.00 0.00 0.00 0.00 0.00 0.00 0.00 0.00 0.00 0.00 0.00 0.00 0.00 0.00 0.00 0.00 0.00 0.00 0.00 0.00 0.01 0.01 0.01 0.01 0.01 0.01 0.00 0.00 0.00 0.00 0.00 0.00 0.00 0.00 0.00 0.00 0.00 0.00 0.00
0.00 0.00 0.00 0.00 0.00 0.00 0.00 0.00 0.00 0.00 0.00 0.00 0.00 0.00 0.00 0.00 0.00 0.00 0.00 0.00 0.00 0.00 0.00 0.00 0.00 0.00 0.00 0.00 0.00 0.00 0.00 0.01 0.01 0.02 0.01 0.01 0.00 0.00 0.00 0.00 0.00 0.00 0.00 0.00 0.00 0.00 0.00 0.01 0.01
0.00 0.00 0.00 0.00 0.00 0.00 0.00 0.00 0.00 0.00 0.00 0.00 0.00 0.00 0.00 0.00 0.00 0.00 0.00 0.00 0.00 0.00 0.00 0.00 0.00 0.00 0.00 0.00 0.00 0.00 0.00 0.01 0.01 0.01 0.00 0.00 0.00 0.00 0.00 0.00 0.00 0.00 0.00 0.00 0.00 0.00 0.00 0.00 0.00
0.00 0.00 0.00 0.00 0.00 0.00 0.00 0.00 0.00 0.00 0.00 0.00 0.00 0.00 0.00 0.00 0.01 0.01 0.01 0.01 0.01 0.00 0.00 0.00 0.00 0.00 0.00 0.00 0.00 0.00 0.00 0.00 0.00 0.00 0.00 0.00 0.00 0.00 0.00 0.00 0.00 0.00 0.00 0.00 0.00 0.00 0.00 0.00 0.00
0.00 0.00 0.00 0.00 0.00 0.00 0.00 0.00 0.00 0.00 0.00 0.00 0.00 0.00 0.01 0.02 0.02 0.03 0.04 0.04 0.04 0.03 0.02 0.01 0.00 0.00 0.00 0.01 0.01 0.00 0.00 0.00 0.00 0.00 0.00 0.00 0.00 0.00 0.00 0.00 0.00 0.00 0.00 0.00 0.00 0.00 0.00 0.00 0.00
0.00 0.00 0.00 0.00 0.00 0.00 0.00 0.00 0.00 0.00 0.00 0.00 0.00 0.00 0.00 0.02 0.03 0.06 0.08 0.10 0.12 0.10 0.08 0.04 0.01 0.00 0.00 0.00 0.01 0.00 0.00 0.00 0.00 0.00 0.00 0.00 0.00 0.00 0.00 0.00 0.00 0.00 0.00 0.00 0.00 0.00 0.00 0.00 0.00
0.00 0.00 0.00 0.00 0.00 0.00 0.00 0.00 0.00 0.00 0.00 0.00 0.00 0.00 0.00 0.00 0.02 0.07 0.09 0.13 0.16 0.14 0.11 0.06 0.03 0.02 0.01 0.01 0.00 0.00 0.00 0.00 0.00 0.00 0.00 0.00 0.00 0.00 0.00 0.00 0.00 0.00 0.00 0.00 0.00 0.00 0.00 0.00 0.00
0.00 0.00 0.00 0.00 0.00 0.00 0.00 0.00 0.00 0.00 0.00 0.00 0.00 0.00 0.00 0.00 0.01 0.04 0.07 0.13 0.16 0.15 0.11 0.08 0.05 0.04 0.03 0.02 0.01 0.01 0.00 0.00 0.00 0.00 0.00 0.00 0.00 0.00 0.00 0.00 0.00 0.00 0.00 0.00 0.00 0.00 0.00 0.00 0.00
0.00 0.00 0.00 0.00 0.00 0.00 0.00 0.00 0.00 0.00 0.00 0.00 0.00 0.00 0.00 0.00 0.01 0.02 0.03 0.07 0.11 0.14 0.12 0.09 0.07 0.06 0.05 0.02 0.01 0.01 0.00 0.00 0.00 0.00 0.00 0.00 0.00 0.00 0.00 0.00 0.00 0.00 0.00 0.00 0.00 0.00 0.00 0.00 0.00
0.00 0.00 0.00 0.00 0.00 0.00 0.00 0.00 0.00 0.00 0.00 0.00 0.00 0.00 0.00 0.00 0.01 0.01 0.01 0.03 0.05 0.10 0.12 0.11 0.09 0.06 0.04 0.02 0.01 0.00 0.00 0.00 0.00 0.00 0.00 0.00 0.00 0.00 0.00 0.00 0.00 0.00 0.00 0.00 0.00 0.00 0.00 0.00 0.00
0.00 0.00 0.00 0.00 0.00 0.00 0.00 0.00 0.00 0.00 0.00 0.00 0.00 0.00 0.00 0.01 0.01 0.01 0.02 0.04 0.05 0.07 0.09 0.09 0.07 0.04 0.02 0.01 0.01 0.00 0.00 0.00 0.00 0.00 0.00 0.00 0.00 0.00 0.00 0.00 0.00 0.00 0.00 0.00 0.00 0.00 0.00 0.00 0.00
0.00 0.00 0.00 0.00 0.00 0.00 0.00 0.00 0.00 0.00 0.00 0.00 0.00 0.00 0.01 0.01 0.01 0.01 0.02 0.03 0.04 0.06 0.07 0.06 0.04 0.02 0.01 0.01 0.00 0.00 0.00 0.00 0.00 0.00 0.00 0.00 0.00 0.00 0.00 0.00 0.00 0.00 0.00 0.00 0.00 0.00 0.00 0.00 0.00
0.00 0.00 0.00 0.00 0.00 0.00 0.00 0.00 0.00 0.00 0.00 0.00 0.00 0.01 0.01 0.01 0.01 0.01 0.01 0.02 0.03 0.04 0.03 0.02 0.02 0.01 0.01 0.00 0.00 0.00 0.00 0.00 0.00 0.00 0.00 0.00 0.00 0.00 0.00 0.00 0.00 0.00 0.00 0.00 0.00 0.00 0.00 0.00 0.00
0.00 0.00 0.00 0.00 0.00 0.00 0.00 0.00 0.00 0.00 0.00 0.00 0.00 0.00 0.01 0.01 0.01 0.01 0.01 0.02 0.03 0.02 0.02 0.02 0.02 0.01 0.01 0.00 0.00 0.00 0.00 0.00 0.00 0.00 0.00 0.00 0.00 0.00 0.00 0.00 0.00 0.00 0.00 0.00 0.00 0.00 0.00 0.00 0.00
0.00 0.00 0.00 0.00 0.00 0.00 0.00 0.00 0.00 0.00 0.00 0.00 0.00 0.00 0.00 0.00 0.00 0.01 0.01 0.02 0.03 0.03 0.03 0.03 0.03 0.02 0.01 0.00 0.00 0.00 0.00 0.00 0.00 0.00 0.00 0.00 0.00 0.00 0.00 0.00 0.00 0.00 0.00 0.00 0.00 0.00 0.00 0.00 0.00
MSLP
1012.91 1013.26 1013.58 1013.79 1013.83 1013.65 1013.29 1012.83 1012.35 1011.98 1011.78 1011.78 1011.95 1012.23 1012.52 1012.74 1012.83 1012.78 1012.62 1012.45 1012.35 1012.41 1012.66 1013.09 1013.65 1014.23 1014.74 1015.12 1015.33 1015.39 1015.36 1015.33 1015.36 1015.51 1015.78 1016.13 1016.51 1016.84 1017.08 1017.19 1017.19 1017.14 1017.09 1017.10 1017.20 1017.39 1017.64 1017.89 1018.08
1012.97 1013.32 1013.62 1013.79 1013.76 1013.52 1013.11 1012.61 1012.11 1011.71 1011.49 1011.47 1011.61 1011.87 1012.14 1012.34 1012.43 1012.39 1012.28 1012.17 1012.14 1012.27 1012.58 1013.08 1013.69 1014.32 1014.88 1015.31 1015.57 1015.68 1015.69 1015.68 1015.72 1015.85 1016.07 1016.36 1016.66 1016.91 1017.07 1017.12 1017.10 1017.05 1017.03 1017.08 1017.24 1017.48 1017.77 1018.04 1018.21
1013.04 1013.38 1013.63 1013.73 1013.63 1013.33 1012.88 1012.35 1011.85 1011.46 1011.24 1011.22 1011.36 1011.60 1011.85 1012.04 1012.12 1012.10 1012.02 1011.94 1011.97 1012.15 1012.51 1013.05 1013.70 1014.37 1014.98 1015.45 1015.76 1015.93 1016.00 1016.03 1016.09 1016.21 1016.39 1016.62 1016.83 1017.00 1017.09 1017.10 1017.05 1017.02 1017.03 1017.14 1017.35 1017.64 1017.95 1018.20 1018.35
1013.12 1013.42 1013.61 1013.63 1013.46 1013.11 1012.63 1012.10 1011.61 1011.25 1011.07 1011.06 1011.21 1011.44 1011.68 1011.87 1011.95 1011.93 1011.87 1011.84 1011.90 1012.11 1012.50 1013.06 1013.72 1014.41 1015.03 1015.54 1015.90 1016.12 1016.25 1016.33 1016.41 1016.53 1016.69 1016.87 1017.03 1017.14 1017.18 1017.16 1017.12 1017.10 1017.16 1017.31 1017.56 1017.87 1018.17 1018.40 1018.51
1013.20 1013.44 1013.56 1013.50 1013.26 1012.86 1012.36 1011.85 1011.40 1011.08 1010.95 1010.98 1011.15 1011.39 1011.63 1011.81 1011.90 1011.90 1011.87 1011.86 1011.95 1012.18 1012.58 1013.13 1013.77 1014.44 1015.06 1015.58 1015.96 1016.22 1016.39 1016.52 1016.64 1016.78 1016.94 1017.09 1017.22 1017.30 1017.32 1017.31 1017.28 1017.30 1017.39 1017.58 1017.84 1018.14 1018.42 1018.60 1018.64
1013.24 1013.42 1013.45 1013.31 1013.01 1012.57 1012.07 1011.58 1011.18 1010.92 1010.84 1010.92 1011.11 1011.37 1011.62 1011.81 1011.92 1011.96 1011.96 1011.99 1012.11 1012.36 1012.75 1013.27 1013.87 1014.50 1015.07 1015.56 1015.94 1016.22 1016.42 1016.59 1016.74 1016.91 1017.08 1017.24 1017.37 1017.45 1017.48 1017.49 1017.50 1017.55 1017.67 1017.87 1018.12 1018.39 1018.61 1018.72 1018.70
1013.23 1013.34 1013.28 1013.06 1012.69 1012.23 1011.73 1011.27 1010.92 1010.72 1010.69 1010.80 1011.03 1011.31 1011.58 1011.80 1011.95 1012.04 1012.10 1012.19 1012.35 1012.61 1012.99 1013.47 1014.01 1014.56 1015.07 1015.50 1015.85 1016.11 1016.32 1016.51 1016.69 1016.88 1017.07 1017.26 1017.41 1017.52 1017.59 1017.63 1017.67 1017.75 1017.89 1018.08 1018.31 1018.52 1018.68 1018.72 1018.63
1013.16 1013.17 1013.02 1012.72 1012.29 1011.81 1011.32 1010.89 1010.58 1010.43 1010.44 1010.58 1010.83 1011.13 1011.43 1011.70 1011.91 1012.07 1012.21 1012.37 1012.59 1012.88 1013.26 1013.69 1014.17 1014.63 1015.05 1015.41 1015.69 1015.92 1016.11 1016.30 1016.50 1016.71 1016.93 1017.14 1017.32 1017.46 1017.56 1017.64 1017.72 1017.83 1017.97 1018.15 1018.33 1018.49 1018.57 1018.55 1018.41
1013.00 1012.92 1012.68 1012.30 1011.83 1011.32 1010.84 1010.45 1010.17 1010.05 1010.08 1010.25 1010.51 1010.83 1011.15 1011.47 1011.75 1012.00 1012.25 1012.50 1012.79 1013.12 1013.50 1013.90 1014.31 1014.68 1015.01 1015.28 1015.50 1015.67 1015.84 1016.01 1016.21 1016.43 1016.67 1016.90 1017.10 1017.27 1017.40 1017.51 1017.61 1017.73 1017.87 1018.02 1018.17 1018.28 1018.31 1018.24 1018.07
1012.78 1012.61 1012.27 1011.83 1011.32 1010.81 1010.34 1009.97 1009.72 1009.62 1009.66 1009.82 1010.08 1010.41 1010.76 1011.13 1011.49 1011.84 1012.18 1012.54 1012.90 1013.29 1013.67 1014.05 1014.40 1014.71 1014.95 1015.14 1015.29 1015.42 1015.55 1015.71 1015.90 1016.12 1016.36 1016.59 1016.81 1016.99 1017.13 1017.26 1017.37 1017.49 1017.62 1017.75 1017.87 1017.94 1017.95 1017.86 1017.69
1012.53 1012.26 1011.85 1011.36 1010.83 1010.32 1009.87 1009.52 1009.29 1009.19 1009.23 1009.38 1009.62 1009.95 1010.32 1010.73 1011.15 1011.59 1012.04 1012.49 1012.93 1013.37 1013.77 1014.14 1014.45 1014.69 1014.88 1015.02 1015.12 1015.22 1015.33 1015.47 1015.65 1015.87 1016.09 1016.32 1016.53 1016.70 1016.85 1016.96 1017.07 1017.19 1017.31 1017.42 1017.52 1017.58 1017.58 1017.50 1017.36
1012.27 1011.93 1011.47 1010.95 1010.42 1009.93 1009.51 1009.18 1008.97 1008.87 1008.88 1009.00 1009.22 1009.53 1009.90 1010.34 1010.83 1011.34 1011.87 1012.39 1012.90 1013.37 1013.79 1014.15 1014.44 1014.65 1014.81 1014.92 1015.01 1015.10 1015.21 1015.36 1015.54 1015.75 1015.97 1016.18 1016.36 1016.52 1016.64 1016.75 1016.84 1016.94 1017.04 1017.15 1017.25 1017.31 1017.32 1017.27 1017.15
1012.06 1011.67 1011.18 1010.66 1010.15 1009.70 1009.31 1009.02 1008.81 1008.70 1008.69 1008.77 1008.95 1009.23 1009.60 1010.05 1010.57 1011.13 1011.72 1012.29 1012.84 1013.33 1013.76 1014.11 1014.39 1014.60 1014.75 1014.87 1014.99 1015.11 1015.25 1015.42 1015.62 1015.84 1016.05 1016.24 1016.40 1016.52 1016.62 1016.69 1016.76 1016.85 1016.94 1017.04 1017.14 1017.22 1017.25 1017.22 1017.14
1011.92 1011.51 1011.03 1010.54 1010.08 1009.67 1009.34 1009.07 1008.87 1008.74 1008.69 1008.73 1008.86 1009.10 1009.46 1009.91 1010.44 1011.03 1011.64 1012.23 1012.79 1013.29 1013.71 1014.05 1014.33 1014.55 1014.73 1014.89 1015.06 1015.25 1015.45 1015.68 1015.92 1016.15 1016.36 1016.54 1016.67 1016.77 1016.83 1016.87 1016.92 1016.98 1017.06 1017.15 1017.25 1017.33 1017.38 1017.37 1017.31
1011.87 1011.47 1011.03 1010.59 1010.20 1009.86 1009.56 1009.31 1009.11 1008.95 1008.85 1008.83 1008.92 1009.12 1009.46 1009.90 1010.44 1011.04 1011.65 1012.25 1012.79 1013.27 1013.67 1014.00 1014.28 1014.52 1014.75 1014.98 1015.23 1015.51 1015.80 1016.10 1016.39 1016.65 1016.87 1017.05 1017.16 1017.23 1017.26 1017.27 1017.29 1017.33 1017.39 1017.47 1017.55 1017.63 1017.67 1017.67 1017.61
1011.90 1011.54 1011.16 1010.81 1010.49 1010.21 1009.95 1009.70 1009.47 1009.26 1009.10 1009.02 1009.06 1009.23 1009.55 1009.99 1010.53 1011.14 1011.75 1012.33 1012.85 1013.30 1013.67 1013.98 1014.26 1014.53 1014.81 1015.13 1015.47 1015.85 1016.24 1016.62 1016.97 1017.27 1017.51 1017.68 1017.79 1017.83 1017.84 1017.83 1017.82 1017.83 1017.87 1017.92 1017.98 1018.04 1018.06 1018.03 1017.95
1011.98 1011.69 1011.40 1011.14 1010.90 1010.66 1010.41 1010.14 1009.85 1009.57 1009.34 1009.19 1009.18 1009.33 1009.64 1010.10 1010.66 1011.28 1011.90 1012.47 1012.97 1013.38 1013.72 1014.01 1014.29 1014.59 1014.93 1015.32 1015.76 1016.23 1016.72 1017.17 1017.58 1017.92 1018.18 1018.35 1018.45 1018.48 1018.47 1018.45 1018.42 1018.41 1018.41 1018.43 1018.46 1018.47 1018.46 1018.39 1018.27
1012.07 1011.87 1011.69 1011.52 1011.34 1011.14 1010.87 1010.55 1010.18 1009.80 1009.47 1009.25 1009.19 1009.33 1009.66 1010.15 1010.76 1011.42 1012.06 1012.64 1013.12 1013.51 1013.82 1014.10 1014.38 1014.70 1015.09 1015.55 1016.07 1016.63 1017.19 1017.70 1018.15 1018.52 1018.79 1018.96 1019.05 1019.08 1019.07 1019.03 1019.00 1018.96 1018.94 1018.93 1018.91 1018.87 1018.81 1018.69 1018.53
1012.11 1012.03 1011.96 1011.89 1011.77 1011.57 1011.26 1010.85 1010.37 1009.87 1009.44 1009.14 1009.04 1009.18 1009.55 1010.11 1010.79 1011.51 1012.21 1012.81 1013.30 1013.68 1013.98 1014.25 1014.53 1014.87 1015.30 1015.81 1016.39 1017.00 1017.61 1018.16 1018.63 1019.01 1019.27 1019.44 1019.53 1019.56 1019.55 1019.52 1019.48 1019.45 1019.41 1019.36 1019.30 1019.22 1019.10 1018.94 1018.73
1012.08 1012.13 1012.18 1012.19 1012.12 1011.91 1011.54 1011.02 1010.41 1009.78 1009.23 1008.85 1008.73 1008.88 1009.31 1009.95 1010.73 1011.55 1012.33 1012.99 1013.51 1013.90 1014.20 1014.46 1014.75 1015.10 1015.55 1016.09 1016.71 1017.35 1017.97 1018.54 1019.01 1019.37 1019.62 1019.77 1019.86 1019.89 1019.90 1019.88 1019.86 1019.83 1019.79 1019.73 1019.64 1019.51 1019.36 1019.16 1018.92
1011.94 1012.12 1012.29 1012.40 1012.36 1012.13 1011.68 1011.05 1010.30 1009.53 1008.87 1008.43 1008.29 1008.47 1008.97 1009.72 1010.62 1011.56 1012.43 1013.17 1013.74 1014.16 1014.47 1014.73 1015.02 1015.38 1015.83 1016.39 1017.01 1017.66 1018.28 1018.83 1019.28 1019.61 1019.83 1019.97 1020.05 1020.09 1020.12 1020.14 1020.14 1020.14 1020.11 1020.04 1019.94 1019.79 1019.61 1019.38 1019.13
1011.67 1011.99 1012.28 1012.47 1012.47 1012.22 1011.71 1010.97 1010.09 1009.21 1008.45 1007.95 1007.80 1008.03 1008.62 1009.48 1010.51 1011.57 1012.55 1013.38 1014.01 1014.46 1014.79 1015.05 1015.34 1015.69 1016.15 1016.70 1017.31 1017.95 1018.55 1019.06 1019.47 1019.76 1019.96 1020.08 1020.15 1020.20 1020.25 1020.30 1020.35 1020.38 1020.37 1020.32 1020.22 1020.06 1019.87 1019.64 1019.39
1011.30 1011.74 1012.15 1012.42 1012.46 1012.20 1011.63 1010.81 1009.83 1008.85 1008.03 1007.50 1007.36 1007.65 1008.32 1009.30 1010.44 1011.63 1012.71 1013.61 1014.30 1014.79 1015.13 1015.40 1015.68 1016.02 1016.47 1017.00 1017.59 1018.20 1018.77 1019.25 1019.61 1019.87 1020.03 1020.12 1020.19 1020.25 1020.32 1020.41 1020.50 1020.56 1020.59 1020.55 1020.46 1020.31 1020.11 1019.89 1019.64
1010.84 1011.39 1011.90 1012.24 1012.31 1012.06 1011.46 1010.59 1009.55 1008.52 1007.66 1007.13 1007.02 1007.36 1008.12 1009.19 1010.45 1011.73 1012.91 1013.88 1014.62 1015.14 1015.49 1015.76 1016.02 1016.35 1016.77 1017.28 1017.85 1018.43 1018.95 1019.39 1019.72 1019.93 1020.06 1020.14 1020.19 1020.26 1020.35 1020.46 1020.58 1020.68 1020.73 1020.72 1020.63 1020.49 1020.29 1020.07 1019.83
1010.33 1010.95 1011.53 1011.93 1012.04 1011.80 1011.20 1010.31 1009.26 1008.21 1007.36 1006.85 1006.78 1007.19 1008.02 1009.19 1010.53 1011.89 1013.13 1014.16 1014.93 1015.47 1015.83 1016.09 1016.34 1016.64 1017.04 1017.52 1018.06 1018.60 1019.09 1019.49 1019.78 1019.96 1020.06 1020.11 1020.16 1020.22 1020.32 1020.44 1020.58 1020.69 1020.76 1020.75 1020.67 1020.52 1020.32 1020.10 1019.87
1009.81 1010.47 1011.08 1011.51 1011.64 1011.41 1010.83 1009.96 1008.92 1007.91 1007.09 1006.63 1006.63 1007.10 1008.01 1009.24 1010.65 1012.06 1013.35 1014.41 1015.21 1015.76 1016.11 1016.37 1016.60 1016.88 1017.25 1017.70 1018.20 1018.71 1019.17 1019.54 1019.79 1019.95 1020.02 1020.05 1020.07 1020.13 1020.21 1020.33 1020.47 1020.58 1020.63 1020.62 1020.53 1020.37 1020.16 1019.92 1019.69
1009.32 1009.96 1010.56 1010.98 1011.11 1010.90 1010.34 1009.51 1008.53 1007.58 1006.83 1006.45 1006.52 1007.06 1008.03 1009.31 1010.77 1012.22 1013.54 1014.62 1015.43 1015.98 1016.34 1016.58 1016.79 1017.05 1017.38 1017.80 1018.27 1018.74 1019.17 1019.51 1019.75 1019.87 1019.92 1019.93 1019.93 1019.96 1020.03 1020.12 1020.23 1020.32 1020.35 1020.32 1020.20 1020.01 1019.78 1019.52 1019.27
1008.91 1009.47 1010.01 1010.39 1010.50 1010.28 1009.75 1008.97 1008.06 1007.20 1006.55 1006.26 1006.41 1007.03 1008.05 1009.38 1010.86 1012.34 1013.67 1014.76 1015.58 1016.14 1016.49 1016.73 1016.92 1017.15 1017.46 1017.84 1018.27 1018.71 1019.11 1019.43 1019.63 1019.74 1019.77 1019.76 1019.74 1019.74 1019.77 1019.83 1019.90 1019.95 1019.94 1019.87 1019.72 1019.51 1019.24 1018.96 1018.69
1008.62 1009.07 1009.49 1009.78 1009.83 1009.60 1009.09 1008.36 1007.54 1006.78 1006.24 1006.06 1006.30 1006.99 1008.07 1009.43 1010.93 1012.41 1013.75 1014.85 1015.67 1016.24 1016.59 1016.82 1017.01 1017.22 1017.49 1017.83 1018.23 1018.63 1019.00 1019.29 1019.48 1019.57 1019.59 1019.55 1019.51 1019.48 1019.47 1019.50 1019.52 1019.53 1019.48 1019.37 1019.19 1018.94 1018.65 1018.34 1018.05
1008.49 1008.79 1009.07 1009.24 1009.21 1008.94 1008.43 1007.76 1007.03 1006.39 1005.97 1005.90 1006.24 1007.00 1008.12 1009.51 1011.01 1012.49 1013.82 1014.92 1015.75 1016.32 1016.68 1016.91 1017.08 1017.27 1017.51 1017.82 1018.17 1018.54 1018.87 1019.14 1019.32 1019.40 1019.40 1019.36 1019.30 1019.24 1019.21 1019.20 1019.19 1019.15 1019.07 1018.93 1018.72 1018.45 1018.13 1017.80 1017.49
Thickness
5782 5787 5792 5790 5785 5786 5792 5800 5805 5805 5806 5810 5810 5804 5797 5793 5785 5776 5790 5797 5795 5793 5784 5772 5768 5766 5764 5762 5761 5760 5758 5756 5754 5752 5750 5748 5746 5745 5743 5742 5741 5741 5741 5740 5739 5739 5738 5737 5737
5786 5788 5787 5785 5779 5786 5792 5803 5803 5807 5808 5810 5807 5801 5796 5793 5793 5790 5791 5792 5790 5788 5782 5774 5765 5763 5761 5759 5757 5756 5754 5752 5750 5747 5745 5742 5741 5739 5738 5737 5737 5737 5736 5736 5735 5734 5733 5733 5732
5787 5789 5783 5782 5782 5793 5795 5804 5807 5808 5809 5807 5803 5803 5796 5790 5791 5790 5791 5790 5787 5783 5779 5770 5762 5760 5757 5755 5753 5751 5749 5747 5744 5742 5740 5738 5736 5734 5733 5733 5733 5732 5732 5731 5730 5729 5729 5728 5728
5787 5784 5783 5778 5784 5797 5801 5807 5809 5802 5804 5808 5804 5795 5797 5796 5794 5794 5790 5788 5785 5779 5775 5766 5760 5757 5754 5751 5748 5746 5743 5741 5738 5737 5735 5734 5732 5731 5730 5730 5729 5729 5728 5727 5726 5725 5724 5723 5722
5787 5783 5775 5779 5790 5800 5806 5810 5811 5804 5799 5802 5802 5794 5790 5793 5797 5795 5789 5786 5782 5777 5773 5764 5757 5754 5750 5747 5744 5741 5739 5736 5734 5733 5732 5731 5730 5728 5728 5727 5727 5726 5725 5723 5722 5721 5720 5719 5718
5780 5781 5775 5784 5792 5800 5809 5813 5812 5808 5805 5806 5802 5796 5791 5794 5792 5791 5789 5784 5782 5774 5770 5761 5752 5749 5746 5743 5740 5738 5736 5734 5733 5731 5730 5729 5728 5727 5725 5725 5724 5722 5721 5720 5718 5717 5716 5715 5714
5779 5779 5782 5790 5790 5796 5806 5814 5811 5809 5805 5808 5810 5796 5792 5792 5792 5792 5789 5784 5780 5774 5768 5760 5754 5747 5743 5740 5738 5736 5735 5733 5732 5730 5729 5728 5726 5725 5723 5721 5720 5718 5717 5716 5714 5713 5711 5710 5708
5789 5784 5784 5789 5791 5795 5808 5813 5816 5814 5810 5820 5815 5799 5793 5793 5793 5791 5787 5783 5779 5772 5765 5759 5755 5751 5745 5741 5736 5734 5732 5731 5730 5729 5727 5725 5723 5722 5719 5717 5715 5713 5711 5710 5709 5708 5706 5705 5704
5786 5778 5786 5790 5792 5799 5812 5812 5814 5822 5814 5811 5815 5813 5809 5803 5795 5787 5782 5777 5773 5768 5763 5757 5753 5750 5748 5743 5735 5733 5730 5728 5727 5726 5723 5722 5724 5722 5718 5713 5710 5708 5706 5704 5704 5703 5702 5701 5700
5780 5780 5791 5796 5802 5805 5811 5814 5811 5809 5803 5802 5806 5809 5807 5799 5792 5785 5780 5775 5771 5766 5762 5760 5755 5751 5749 5744 5738 5735 5734 5730 5729 5727 5724 5722 5719 5717 5714 5707 5706 5704 5702 5701 5700 5700 5699 5699 5702
5782 5784 5793 5800 5807 5807 5809 5814 5817 5809 5801 5807 5806 5804 5800 5794 5790 5785 5781 5776 5773 5767 5761 5761 5754 5751 5749 5743 5740 5737 5735 5728 5725 5722 5719 5716 5714 5712 5711 5709 5704 5702 5701 5702 5698 5699 5700 5699 5696
5780 5786 5793 5799 5807 5805 5808 5814 5814 5814 5817 5827 5824 5815 5801 5794 5790 5786 5782 5778 5774 5767 5761 5758 5751 5747 5744 5742 5737 5733 5731 5726 5724 5717 5714 5713 5712 5709 5709 5705 5704 5703 5702 5698 5697 5696 5694 5691 5690
5775 5783 5792 5799 5805 5807 5807 5810 5811 5814 5823 5825 5822 5812 5803 5798 5792 5789 5785 5780 5774 5765 5761 5757 5751 5744 5739 5735 5733 5730 5726 5724 5719 5714 5711 5708 5709 5707 5705 5702 5697 5698 5696 5695 5692 5691 5688 5685 5685
5780 5783 5787 5795 5801 5803 5803 5806 5806 5810 5817 5815 5811 5807 5804 5798 5791 5787 5781 5774 5769 5762 5758 5754 5748 5742 5737 5732 5729 5726 5724 5717 5716 5711 5708 5704 5704 5701 5699 5696 5692 5691 5689 5687 5683 5682 5679 5679 5677
5776 5772 5781 5790 5795 5800 5801 5791 5798 5807 5810 5806 5806 5804 5801 5797 5790 5784 5779 5771 5766 5759 5755 5750 5746 5741 5735 5731 5727 5723 5720 5715 5711 5706 5701 5698 5697 5694 5692 5691 5687 5684 5681 5678 5676 5675 5672 5669 5667
5769 5766 5767 5785 5787 5792 5788 5782 5793 5802 5801 5799 5801 5800 5795 5792 5788 5783 5776 5767 5762 5757 5751 5748 5746 5739 5733 5728 5722 5720 5716 5710 5705 5700 5695 5690 5687 5685 5683 5682 5679 5674 5673 5672 5668 5666 5663 5660 5657
5757 5758 5765 5779 5780 5783 5782 5785 5784 5794 5794 5793 5794 5793 5788 5783 5781 5775 5768 5760 5755 5750 5746 5744 5742 5736 5730 5723 5716 5712 5706 5702 5698 5693 5688 5682 5679 5676 5674 5670 5666 5665 5664 5661 5658 5655 5650 5647 5643
5753 5756 5762 5768 5773 5770 5771 5776 5777 5784 5787 5789 5790 5788 5783 5778 5772 5766 5759 5754 5749 5745 5741 5738 5734 5729 5723 5717 5710 5704 5698 5693 5689 5684 5678 5675 5671 5667 5665 5661 5656 5655 5653 5648 5643 5639 5635 5631 5628
5747 5745 5750 5760 5767 5758 5762 5765 5770 5774 5778 5783 5785 5784 5779 5775 5768 5757 5750 5747 5743 5739 5735 5731 5727 5721 5717 5712 5706 5698 5691 5685 5680 5674 5668 5665 5661 5657 5654 5652 5646 5643 5639 5634 5631 5627 5625 5622 5618
5735 5732 5739 5752 5757 5748 5752 5756 5766 5766 5771 5778 5779 5777 5775 5769 5756 5748 5744 5742 5739 5733 5729 5723 5718 5714 5710 5705 5698 5691 5683 5675 5669 5662 5657 5653 5649 5646 5643 5639 5636 5631 5627 5623 5619 5614 5611 5610 5606
5728 5729 5736 5740 5749 5745 5739 5742 5757 5763 5766 5769 5772 5775 5774 5766 5752 5743 5738 5736 5733 5726 5722 5717 5711 5705 5700 5693 5687 5679 5672 5665 5658 5651 5645 5641 5637 5634 5630 5627 5623 5619 5617 5613 5604 5598 5595 5592 5588
5722 5737 5734 5732 5730 5735 5736 5724 5757 5759 5756 5760 5764 5768 5769 5764 5751 5740 5733 5728 5725 5719 5714 5707 5701 5694 5688 5684 5680 5674 5666 5657 5648 5641 5635 5629 5624 5620 5617 5614 5610 5605 5603 5595 5591 5585 5578 5574 5572
5726 5738 5731 5728 5725 5723 5728 5717 5742 5756 5747 5759 5764 5765 5765 5760 5748 5736 5729 5722 5717 5711 5705 5697 5691 5684 5678 5673 5667 5661 5655 5647 5639 5631 5623 5617 5612 5608 5604 5600 5595 5590 5587 5579 5573 5568 5562 5559 5554
5731 5724 5720 5720 5720 5705 5721 5718 5728 5755 5750 5762 5767 5761 5757 5753 5740 5728 5719 5712 5704 5698 5692 5686 5679 5671 5665 5661 5656 5651 5644 5636 5628 5620 5615 5610 5605 5598 5591 5585 5579 5576 5570 5564 5558 5552 5549 5540 5533
5717 5704 5696 5696 5700 5707 5732 5720 5729 5754 5759 5760 5759 5752 5746 5740 5727 5714 5705 5698 5692 5685 5678 5671 5665 5658 5652 5648 5643 5638 5632 5625 5618 5613 5607 5600 5595 5588 5577 5572 5566 5561 5555 5549 5543 5538 5532 5527 5519
5713 5708 5692 5689 5701 5720 5728 5712 5734 5751 5750 5749 5750 5746 5736 5727 5716 5704 5696 5688 5681 5674 5667 5660 5654 5648 5642 5636 5631 5626 5622 5618 5611 5601 5597 5589 5582 5575 5565 5558 5553 5547 5542 5537 5531 5526 5522 5514 5508
5712 5712 5719 5704 5701 5697 5712 5727 5734 5740 5740 5742 5742 5736 5726 5717 5705 5694 5686 5678 5671 5663 5656 5651 5645 5638 5632 5625 5619 5615 5609 5603 5597 5589 5582 5577 5567 5561 5554 5547 5541 5535 5529 5524 5517 5515 5507 5502 5497
5723 5722 5713 5696 5680 5680 5700 5712 5724 5733 5738 5740 5735 5726 5716 5706 5694 5685 5677 5668 5661 5654 5648 5642 5636 5629 5622 5616 5610 5604 5598 5591 5584 5579 5569 5562 5554 5547 5541 5536 5530 5524 5518 5512 5506 5502 5498 5492 5487
5713 5709 5704 5705 5705 5691 5688 5708 5742 5737 5737 5736 5734 5725 5711 5697 5686 5677 5669 5660 5652 5645 5639 5633 5626 5619 5612 5606 5599 5592 5586 5578 5572 5565 5557 5550 5543 5536 5530 5525 5519 5513 5508 5502 5496 5492 5486 5482 5479
5714 5712 5707 5692 5694 5699 5692 5706 5738 5731 5730 5729 5729 5721 5706 5691 5680 5671 5661 5650 5641 5635 5629 5622 5616 5609 5602 5595 5587 5580 5573 5565 5559 5553 5545 5538 5532 5526 5521 5515 5509 5504 5499 5493 5488 5483 5479 5473 5469